Location: Unspecified
(58.9933°N, 5.6375°E)
Time: 03:23:17
(UTC+02:00)

CZ-3 Stage 3 - Visible Passes

Search period start: 30 August 2016 00:00
Search period end: 09 September 2016 00:00
Orbit: 482 x 34721 km, 30.6° (Epoch: 27 August)

Date Brightness Start Highest point End Pass type
(mag) Time Alt. Az. Time Alt. Az. Time Alt. Az.
01 Sep 6.1 20:45:55 10° W 21:54:22 22° SW 22:05:57 10° S visible
04 Sep 6.2 20:32:07 10° W 21:45:24 22° SW 21:57:17 10° S visible
07 Sep 6.2 20:17:31 10° W 21:36:25 22° SW 21:48:36 10° S visible
